Wind_Speed
24 25 27 27 25 23 20 15 14 11 10 7 3 1 4 1 1 5 11 14 19 21 26 27 27 15 19 23 22 14 14 18 16 13 15 15 13 9 8 7 8 10 10 13 9
19 25 27 29 30 28 26 22 18 16 12 10 7 4 3 1 2 1 8 12 13 24 27 30 27 16 16 12 17 12 8 14 14 8 20 16 6 5 6 8 8 8 9 10 13
13 15 25 30 32 33 31 29 24 20 17 14 10 9 3 1 2 4 7 14 14 24 30 33 22 24 22 11 8 14 11 8 8 9 15 18 7 8 7 4 6 6 7 8 9
16 15 14 23 30 34 36 34 30 25 22 19 14 12 8 3 3 5 7 14 14 21 28 32 26 27 19 9 7 6 7 9 11 18 17 11 16 9 5 7 8 6 6 8 9
20 20 18 17 20 31 35 37 35 29 27 24 19 15 13 10 3 4 6 10 15 25 30 36 28 29 26 14 8 8 4 7 14 20 16 11 13 9 8 8 7 5 6 7 7
21 21 21 21 19 19 32 35 37 34 31 29 24 19 19 14 11 6 7 12 18 32 34 37 28 30 26 18 16 6 9 9 13 6 7 8 2 8 8 8 6 3 6 7 7
23 23 22 23 23 22 19 32 35 37 34 34 30 25 23 18 15 10 9 13 22 26 37 37 27 30 28 21 13 20 11 12 10 7 14 8 4 5 7 8 6 4 5 8 10
23 25 26 25 24 25 24 20 34 36 37 37 35 32 27 23 19 17 13 10 19 25 31 37 35 30 30 28 22 19 22 8 12 11 10 5 7 2 1 5 7 2 4 7 9
22 22 23 27 28 27 27 26 24 36 38 38 39 38 33 28 28 24 19 18 17 27 27 32 32 31 27 27 28 26 22 13 7 1 5 2 9 8 7 4 4 2 3 6 6
22 23 24 25 26 31 30 29 30 25 39 37 36 41 39 35 35 30 24 26 22 28 31 29 29 27 25 27 28 29 19 14 2 9 9 6 7 8 9 14 14 6 6 1 3
26 25 26 28 27 29 35 33 34 29 21 37 39 42 44 41 38 34 30 28 30 29 28 29 30 25 19 18 21 22 15 4 8 12 12 11 11 9 9 16 9 7 6 3 2
27 28 28 29 30 30 33 36 35 34 24 27 39 39 47 45 44 41 38 35 33 27 28 30 31 23 19 23 29 26 21 13 5 12 20 19 14 10 10 9 3 2 4 3 3
31 29 30 30 31 33 33 33 37 37 30 25 36 41 42 48 45 45 42 36 31 31 26 26 23 29 27 32 31 26 23 21 5 16 23 22 21 17 13 7 4 9 10 12 7
34 34 32 33 31 35 35 32 37 38 31 20 27 31 41 44 49 47 46 41 38 33 29 29 32 37 34 30 32 31 21 11 14 24 30 21 22 25 19 13 7 10 20 20 6
36 34 34 31 32 35 34 33 36 36 26 20 23 36 35 40 42 44 47 47 41 35 36 29 36 35 37 31 36 29 22 15 20 22 22 25 27 19 21 18 11 16 11 11 15
38 38 34 32 30 33 35 33 35 34 20 19 18 19 29 30 42 45 48 51 43 42 41 35 36 37 34 34 40 34 26 27 24 25 28 26 23 26 27 27 19 20 17 14 12
39 43 35 32 32 31 33 35 34 32 17 17 15 10 4 19 31 43 46 53 53 50 47 42 43 40 36 40 42 42 32 34 38 36 34 25 29 27 30 31 23 23 18 16 15
39 41 36 32 36 30 34 36 36 25 15 21 23 26 23 6 11 28 40 49 53 50 48 45 46 44 41 42 37 38 35 35 39 48 45 34 39 15 14 17 19 26 19 15 13
40 41 36 39 36 31 34 38 31 20 23 30 28 27 24 15 9 11 32 42 49 53 52 48 46 42 42 40 34 37 42 34 33 35 23 26 22 15 20 17 18 21 19 15 15
40 40 39 38 33 36 34 33 28 20 32 38 36 30 28 27 25 22 14 33 40 49 48 44 43 40 34 32 29 30 24 30 36 31 30 29 23 23 15 18 16 17 17 18 23
40 37 43 37 35 37 33 30 26 23 32 48 44 38 25 29 27 31 21 14 30 41 47 41 40 40 39 38 31 27 31 28 28 28 36 26 23 21 19 22 17 17 16 22 25
40 39 38 38 36 38 35 32 30 28 31 50 50 42 33 34 34 17 31 17 18 30 42 42 41 43 44 34 30 24 32 34 35 38 32 33 26 27 23 24 17 14 18 23 28
39 38 39 39 37 36 36 36 34 31 38 51 52 47 35 36 28 18 27 41 34 24 34 34 44 42 42 39 30 27 32 35 33 36 34 35 34 30 28 27 25 21 25 26 25
40 38 44 41 37 39 40 40 37 33 39 46 56 42 41 37 28 27 31 41 40 28 18 13 46 45 46 39 33 34 31 28 29 36 34 34 32 35 32 26 27 30 34 29 29
40 42 40 42 37 38 41 41 40 37 41 41 55 50 38 39 34 35 32 37 36 39 36 27 44 45 44 33 31 37 38 30 31 33 31 25 28 38 34 28 29 33 29 32 32
41 41 42 40 41 39 40 41 44 41 45 42 53 63 39 46 38 32 37 42 37 30 36 39 26 47 48 39 25 31 39 39 27 28 28 34 31 32 32 28 29 35 38 42 35
46 45 44 42 43 42 41 40 43 47 45 47 54 65 54 49 45 42 44 39 41 40 38 41 35 48 48 39 33 38 46 41 39 44 34 40 32 30 33 34 37 43 45 45 44
Wind_Direction
259 252 246 247 243 238 239 245 258 266 261 251 216 72 44 52 110 189 182 190 171 171 150 152 157 129 102 84 80 87 57 66 25 6 62 56 16 35 59 65 80 91 105 112 107
269 260 255 249 247 247 243 242 249 257 259 251 228 220 76 64 192 217 170 190 176 173 159 155 151 127 86 72 75 78 46 62 19 10 17 32 48 354 24 35 37 85 95 110 121
296 279 258 254 249 248 245 244 247 249 250 251 236 220 197 105 190 140 186 190 176 175 170 156 137 108 87 75 43 106 103 42 344 324 348 5 25 20 67 40 29 58 93 97 102
291 288 282 259 251 249 247 249 247 245 241 244 237 226 211 212 210 220 187 193 167 173 180 155 145 107 103 86 30 11 98 57 308 325 329 343 338 44 53 28 30 14 64 68 82
288 287 285 279 261 249 247 246 247 241 235 236 234 228 216 213 206 238 196 184 161 173 175 164 138 122 126 132 87 352 314 319 318 318 338 325 324 21 29 22 23 24 55 69 80
290 284 282 281 275 265 247 244 242 241 233 229 230 227 221 214 209 205 197 175 172 174 177 167 150 137 138 135 114 179 268 280 293 17 339 292 290 21 31 29 11 48 80 80 77
286 289 287 279 276 274 269 246 241 237 234 227 226 225 225 215 217 206 206 184 179 180 187 181 175 151 150 144 133 240 248 262 99 93 48 359 350 9 33 22 6 47 85 90 87
283 284 288 289 282 273 270 268 243 237 232 227 223 223 223 215 218 207 204 207 190 190 190 196 191 175 166 156 148 219 250 238 139 73 78 74 356 271 48 44 15 2 112 105 95
284 285 286 285 287 285 271 264 261 238 233 226 222 221 221 209 211 211 197 203 198 197 199 199 203 201 211 179 162 206 234 219 189 161 31 76 33 344 314 352 355 2 131 121 115
277 286 289 288 287 286 283 269 258 255 235 228 220 220 218 212 219 208 205 200 203 202 207 206 206 209 218 213 183 197 216 218 333 297 309 357 9 356 326 352 318 331 346 235 160
273 279 286 288 286 281 281 277 268 263 266 238 223 215 219 216 218 213 205 202 210 205 212 212 209 212 219 233 185 173 210 259 3 335 320 322 327 325 338 326 324 291 242 245 263
274 279 281 285 287 282 274 278 278 262 249 245 226 224 216 214 217 217 213 206 210 216 210 208 207 208 206 191 172 171 189 210 301 290 305 301 301 297 337 306 196 199 304 358 288
274 277 281 282 284 283 278 276 273 270 254 272 232 220 223 215 211 218 219 211 212 218 217 209 198 203 206 184 173 175 194 225 270 265 267 279 290 284 297 265 231 294 279 290 242
270 272 277 278 282 282 281 279 273 267 266 257 254 216 227 219 212 216 218 212 210 215 216 211 197 205 208 202 183 186 184 211 244 250 251 283 293 286 290 282 265 308 307 302 250
266 277 274 273 279 281 279 272 271 266 270 254 242 218 222 220 216 216 220 216 210 212 216 210 210 212 213 199 193 171 183 220 240 240 250 256 265 285 284 292 315 323 325 291 299
269 270 273 274 277 277 271 268 271 263 266 246 232 217 231 222 215 212 216 216 209 207 213 209 211 215 215 198 195 176 195 212 234 241 245 255 262 270 276 291 292 297 298 307 317
268 268 269 271 271 273 265 263 265 258 257 216 173 125 223 218 222 218 216 213 211 207 211 204 207 211 209 207 203 191 203 211 218 233 242 250 256 267 282 283 282 287 311 297 285
265 265 265 262 266 263 261 258 257 258 227 200 188 179 153 141 215 226 221 218 212 212 216 210 209 207 208 213 206 194 205 220 226 218 223 233 245 264 276 271 265 271 296 303 346
267 262 262 257 261 260 256 258 260 257 205 192 202 198 175 176 210 285 232 223 221 215 215 214 214 210 209 211 207 204 213 224 233 228 220 213 240 269 253 261 259 276 292 307 332
264 260 255 255 254 257 253 258 254 244 204 197 196 196 203 207 218 221 264 229 218 221 218 218 218 211 205 196 200 216 224 232 210 215 218 221 241 264 257 267 265 270 285 301 312
259 256 254 249 249 252 254 253 246 237 219 202 197 193 185 191 206 220 229 272 221 222 218 215 221 206 190 199 201 211 223 215 231 219 221 230 235 259 260 254 251 277 279 296 300
257 254 251 248 247 248 243 242 236 227 225 205 203 198 190 194 194 200 216 230 241 210 215 210 218 202 208 198 203 219 219 214 230 232 243 235 236 249 254 256 262 269 280 287 299
253 250 246 244 243 244 237 236 233 223 222 209 209 200 204 213 186 186 215 219 225 212 203 210 217 207 199 198 200 216 234 225 230 234 238 232 238 246 255 272 257 279 283 284 293
249 245 246 242 236 235 234 226 226 221 220 217 208 209 216 212 189 181 198 217 222 207 176 211 212 212 208 207 204 209 228 232 243 246 232 227 234 247 252 265 272 277 282 290 303
242 242 243 245 238 231 235 230 219 214 218 219 210 212 208 209 197 200 191 202 213 219 205 226 218 211 197 192 206 216 234 233 239 229 235 250 247 247 257 267 279 279 284 291 288
243 239 237 237 239 229 230 229 227 213 212 214 213 220 208 209 206 198 185 198 200 209 210 208 221 208 197 198 219 231 224 234 227 229 235 243 249 234 252 263 270 280 281 287 284
240 239 233 232 234 232 225 222 226 220 214 216 218 214 218 219 208 197 196 196 201 208 214 212 211 211 209 207 211 219 215 216 220 217 218 234 238 241 248 262 267 267 271 278 287
Height
5899 5900 5901 5902 5905 5906 5907 5908 5908 5910 5910 5910 5911 5910 5908 5908 5909 5909 5910 5909 5910 5913 5914 5917 5920 5920 5921 5921 5920 5923 5924 5922 5925 5925 5921 5923 5925 5927 5925 5925 5923 5921 5921 5920 5918
5895 5896 5897 5897 5899 5901 5904 5906 5906 5907 5908 5909 5910 5910 5909 5908 5908 5908 5910 5908 5909 5911 5915 5916 5919 5921 5920 5919 5919 5920 5921 5920 5925 5927 5927 5925 5927 5930 5927 5926 5926 5923 5923 5923 5922
5892 5891 5892 5893 5894 5895 5898 5901 5903 5904 5906 5906 5908 5909 5909 5908 5908 5908 5908 5908 5908 5910 5915 5918 5921 5921 5921 5923 5922 5918 5919 5922 5925 5929 5927 5926 5927 5927 5928 5927 5926 5926 5925 5924 5923
5888 5887 5887 5887 5888 5890 5891 5894 5898 5900 5902 5904 5905 5907 5908 5908 5909 5907 5907 5907 5909 5910 5914 5919 5921 5919 5922 5924 5918 5921 5919 5922 5925 5926 5927 5927 5927 5930 5928 5926 5925 5927 5927 5925 5924
5883 5883 5882 5882 5882 5883 5885 5887 5890 5895 5897 5900 5902 5904 5906 5907 5907 5907 5906 5907 5911 5910 5914 5917 5917 5919 5922 5921 5915 5921 5922 5924 5925 5929 5929 5930 5927 5930 5929 5927 5926 5927 5927 5926 5926
5878 5877 5877 5877 5876 5876 5878 5880 5883 5887 5891 5895 5898 5900 5903 5904 5905 5905 5906 5907 5911 5911 5913 5916 5916 5918 5921 5918 5915 5922 5921 5925 5931 5933 5932 5932 5932 5932 5930 5929 5928 5928 5928 5927 5926
5872 5871 5871 5871 5871 5871 5871 5872 5874 5879 5883 5888 5892 5896 5898 5901 5903 5904 5905 5906 5909 5910 5913 5914 5915 5917 5919 5921 5923 5923 5926 5927 5932 5934 5931 5931 5932 5932 5933 5931 5931 5929 5928 5927 5927
5867 5866 5866 5866 5865 5864 5865 5865 5866 5870 5874 5879 5885 5890 5892 5896 5900 5901 5902 5905 5907 5907 5908 5911 5912 5914 5917 5918 5922 5921 5922 5925 5929 5931 5933 5934 5932 5931 5933 5934 5934 5932 5931 5929 5927
5861 5860 5860 5860 5860 5858 5859 5858 5859 5861 5864 5871 5878 5882 5886 5891 5891 5896 5898 5901 5904 5905 5906 5907 5910 5912 5914 5915 5916 5920 5921 5923 5927 5929 5932 5934 5932 5931 5933 5933 5935 5934 5932 5930 5929
5853 5853 5853 5853 5854 5853 5852 5852 5850 5853 5856 5862 5868 5876 5880 5883 5883 5889 5894 5896 5900 5900 5900 5903 5906 5909 5912 5913 5914 5919 5921 5922 5925 5926 5928 5931 5931 5931 5931 5932 5932 5933 5931 5931 5929
5847 5845 5844 5845 5847 5847 5845 5845 5847 5850 5853 5855 5859 5862 5869 5875 5879 5883 5886 5890 5893 5895 5896 5899 5902 5906 5911 5914 5915 5916 5921 5923 5925 5924 5925 5927 5929 5931 5932 5930 5932 5933 5932 5930 5928
5841 5839 5838 5836 5838 5839 5838 5838 5838 5838 5846 5840 5848 5854 5857 5865 5871 5875 5878 5882 5885 5890 5893 5895 5898 5907 5910 5911 5911 5914 5915 5920 5923 5923 5924 5925 5926 5930 5930 5928 5929 5929 5930 5929 5927
5834 5833 5832 5830 5829 5830 5830 5832 5829 5829 5837 5837 5838 5843 5850 5856 5864 5867 5872 5877 5882 5884 5889 5893 5901 5902 5904 5907 5907 5909 5912 5917 5920 5923 5920 5921 5921 5926 5927 5927 5926 5925 5927 5927 5925
5825 5825 5824 5823 5823 5822 5823 5824 5822 5822 5827 5831 5829 5839 5837 5849 5853 5859 5865 5869 5873 5879 5884 5888 5893 5893 5897 5901 5905 5906 5908 5916 5918 5917 5915 5918 5918 5920 5921 5922 5926 5925 5924 5926 5925
5816 5816 5816 5816 5814 5815 5816 5814 5814 5817 5822 5823 5822 5825 5828 5837 5849 5853 5859 5860 5866 5873 5876 5885 5885 5887 5890 5896 5901 5906 5908 5911 5913 5915 5915 5913 5914 5918 5915 5917 5920 5922 5923 5924 5924
5806 5807 5807 5808 5806 5806 5806 5807 5808 5812 5819 5817 5819 5820 5823 5830 5836 5841 5846 5853 5859 5862 5866 5876 5881 5882 5889 5895 5896 5902 5902 5907 5907 5908 5907 5910 5911 5910 5911 5913 5916 5920 5922 5922 5920
5795 5796 5798 5799 5796 5797 5798 5799 5801 5804 5814 5813 5814 5816 5819 5823 5828 5832 5839 5842 5846 5849 5854 5864 5869 5876 5883 5888 5891 5893 5896 5899 5902 5899 5900 5906 5905 5907 5908 5910 5914 5916 5917 5917 5916
5784 5785 5788 5788 5785 5789 5788 5791 5791 5804 5807 5806 5805 5804 5808 5817 5822 5826 5830 5835 5840 5845 5850 5856 5860 5866 5873 5877 5884 5886 5891 5892 5893 5895 5898 5902 5900 5907 5908 5909 5909 5909 5911 5911 5912
5773 5775 5777 5774 5777 5780 5780 5779 5787 5796 5799 5799 5799 5799 5802 5807 5815 5820 5823 5830 5836 5839 5841 5848 5854 5862 5866 5873 5878 5882 5881 5888 5890 5891 5894 5899 5900 5900 5902 5903 5903 5903 5902 5906 5908
5761 5763 5762 5764 5767 5768 5769 5773 5781 5787 5788 5788 5790 5795 5798 5800 5804 5809 5816 5822 5827 5831 5838 5846 5851 5856 5863 5867 5870 5873 5881 5881 5881 5885 5887 5889 5890 5892 5895 5897 5899 5899 5899 5900 5901
5748 5750 5749 5752 5754 5757 5759 5766 5774 5777 5776 5779 5783 5788 5793 5795 5796 5799 5807 5816 5821 5824 5830 5839 5845 5852 5853 5854 5862 5867 5871 5875 5880 5881 5881 5883 5885 5887 5890 5891 5893 5894 5896 5894 5894
5735 5738 5739 5739 5744 5746 5749 5758 5764 5767 5767 5774 5774 5781 5784 5785 5786 5787 5794 5807 5816 5820 5819 5830 5836 5842 5845 5852 5856 5863 5866 5869 5872 5875 5876 5878 5880 5881 5884 5886 5888 5890 5892 5893 5891
5721 5723 5726 5727 5730 5735 5739 5746 5752 5757 5759 5764 5769 5774 5776 5773 5774 5781 5790 5797 5807 5813 5816 5822 5824 5836 5840 5845 5848 5853 5859 5864 5867 5871 5870 5874 5875 5877 5877 5879 5882 5883 5885 5887 5887
5707 5710 5709 5714 5720 5722 5725 5731 5740 5748 5750 5753 5761 5763 5760 5763 5766 5774 5783 5791 5798 5803 5810 5818 5821 5827 5831 5838 5844 5849 5854 5858 5860 5862 5867 5868 5871 5870 5872 5873 5876 5877 5877 5879 5880
5691 5695 5698 5701 5709 5711 5716 5722 5729 5735 5739 5743 5749 5743 5744 5756 5761 5766 5776 5785 5792 5795 5798 5809 5813 5822 5829 5835 5839 5842 5848 5851 5853 5857 5859 5865 5866 5865 5868 5869 5870 5870 5871 5874 5875
5677 5683 5686 5690 5693 5700 5706 5710 5717 5724 5727 5733 5736 5740 5744 5748 5753 5759 5767 5778 5786 5790 5792 5798 5807 5817 5822 5828 5833 5835 5838 5845 5848 5852 5854 5858 5859 5861 5863 5864 5864 5865 5866 5866 5870
5661 5666 5672 5677 5681 5687 5692 5697 5706 5712 5719 5723 5728 5734 5737 5742 5746 5755 5762 5771 5777 5783 5789 5794 5802 5810 5815 5821 5825 5827 5830 5836 5841 5839 5843 5847 5853 5857 5857 5858 5859 5859 5860 5860 5862